Tracking 27420 objects as of 28-May-2023
HD Live streaming from Space Station
objects crossing your sky now

METEOR 2-12

Track METEOR 2-12 now!
10-day predictions
METEOR 2-12 is classified as:


NORAD ID: 15516
Int'l Code: 1985-013A
Perigee: 939.5 km
Apogee: 962.3 km
Inclination: 82.5 °
Period: 103.9 minutes
Semi major axis: 7321 km
RCS: 5.2452 m2 (large)
Launch date: February 6, 1985
Source: Commonwealth of Independent States (former USSR) (CIS)
Launch site: PLESETSK MISSILE AND SPACE COMPLEX (PKMTR)
Your satellite tracking list
Your tracking list is empty




NASA's NSSDC Master Catalog

Two Line Element Set (TLE):
1 15516U 85013A   23147.91181427  .00000072  00000-0  49714-4 0  9993
2 15516  82.5293 142.6898 0015603 174.4533 185.6804 13.85700242937204
Source of the keplerian elements: AFSPC